User: anonymous   Login
Location: �bnet
(46.9957°N, 8.4908°E)
Time: 00:42:33
(UTC+00:00)
Language:

OE (NEXTSAT) - Orbit

View from above orbital plane
View from above orbital plane
View from above satellite
View from above satellite

Ground track
Ground track

The orbit data is extracted from the following two-line orbital elements,

1 30774U 07006C   21213.49467591  .00003334  00000-0  73898-4 0  9990
2 30774  46.0016 341.4486 0003937  42.4954 317.6256 15.46272773804220
Epoch (UTC): 01 August 2021 11:52:19
Eccentricity: 0.0003937
inclination: 46.0016°
perigee height: 425 km
apogee height: 430 km
right ascension of ascending node: 341.4486°
argument of perigee: 42.4954°
revolutions per day: 15.46272773
mean anomaly at epoch: 317.6256°
orbit number at epoch: 80422

The dashed part of the orbit path shows where the satellite is in the earth's shadow,  

DLR